EHI
0 0 0 0 0 0 0 0 0 0 0 0 0 0 0 0 0 0 0 0 0 0 0 0 0 0 0 0 0 0 0 0 0 0 0 0 0 0
0 0 0 0 0 0 0 0 0 0 0 0 0 0 0 0 0 0 0 0 0 0 0 0 0 0 0 0 0 0 0 0 0 0 0 0 0 0
0 0 0 0 0 0 0 0 0 0 0 0 0 0 0 0 0 0 0 0 0 0 0 0 0 0 0 0 0 0 0 0 0 0 0 0 0 0
0 0 0 0 0 0 0 0 0 0 0 0 0 0 0 0 0 0 0 0 0 0 0 0 0 0 0 0 0 0 0 0 0 0 0 0 0 0
0 0 0 0 0 0 0 0 0 0 0 0 0 0 0 0 0 0 0 0 0 0 0 0 0 0 0 0 0 0 0 0 0 0 0 0 0 0
0 0 0 0 0 0 0 0 0 0 0 0 0 0 0 0 0 0 0 0 0 0 0 0 0 0 0 0 0 0 0 0 0 0 0 0 0 0
0 0 0 0 0 0 0 0 0 0 0 0 0 0 0 0 0 0 0 0 0 0 0 0 0 0 0 0 0 0 0 0 0 0 0 0 0 0
0 0 0 0 0 0 0 0 0 0 0 0 0 0 0 0 0 0 0 0 0 0 0 0 0 0 0 0 0 0 0 0 0 0 0 0 0 0
0 0 0 0 0 0 0 0 0 0 0 0 0 0 0 0 0 0 0 0 0 0 0 0 0 0 0 0 0 0 0 0 0 0 0 0 0 0
0 0 0 0 0 0 0 0 0 0 0 0 0 0 0 0 0 0 0 0 0 0 0 0 0 0 0 0 0 0 0 0 0 0 0 0 0 0
0 0 0 0 0 0 0 0 0 0 0 0 0 0 0 0 0 0 0 0 0 0 0 0 0 0 0 0 0 0 0 0 0 0 0 0 0 0
0 0 0 0 0 0 0 0 0 0 0 0 0 0 0 0 0 0 0 0 0 0 0 0 0 0 0 0 0 0 0 0 0 0 0 0 0 0
0 0 0 0 0 0 0 0 0 0 0 0 0 0 0 0 0 0 0 0 0 0 0 0 0 0 0 0 0 0 0 0 0 0 0 0 0 0
0 0 0 0 0 0 0 0 0 0 0 0 0 0 0 0 0 0 0 0 0 0 0 0 0 0 0 0 0 0 0 0 0 0 0 0 0 0
0 0 0 0 0 0 0 0 0 0 0 0 0 0 0 0 0 0 0 0 0 0 0 0 0 0 0 0 0 0 0 0 0 0 0 0 0 0
0 0 0 0 0 0 0 0 0 0 0 0 0 0 0 0 0 0 0 0 0 0 0 0 0 0 0 0 0 0 0 0 0 0 0 0 0 0
0 0 0 0 0 0 0 0 0 0 0 0 0 0 0 0 0 0 0 0 0 0 0 0 0 0 0 0 0 0 0 0 0 0 0 0 0 0
0 0 0 0 0 0 0 0 0 0 0 0 0 0 0 0 0 0 0 0 0 0 0 0 0 0 0 0 0 0 0 0 0 0 0 0 0 0
0 0 0 0 0 0 0 0 0 0 0 0 0 0 0 0 0 0 0 0 0 0 0 0 0 0 0 0 0 0 0 0 0 0 0 0 0 0
0 0 0 0 0 0 0 0 0 0 0 0 0 0 0 0 0 0 0 0 0 0 0 0 0 0 0 0 0 0 0 0 0 0 0 0 0 0
0 0 0 0 0 0 0 0 0 0 0 0 0 0 0 0 0 0 0 0 0 0 0 0 0 0 0 0 0 0 0 0 0 0 0 0 0 0
0 0 0 0 0 0 0 0 0 0 0 0 0 0 0 0 0 0 0 0 0 0 0 0 0 0 0 0 0 0 0 0 0 0 0 0 0 0
0 0 0 0 0 0 0 0 0 0 0 0 0 0 0 0 0 0 0 0 0 0 0 0 0 0 0 0 0 0 0 0 0 0 0 0 0 0
Wind_Speed
2 2 2 2 1 0 0 1 1 2 3 1 1 0 1 1 3 3 2 5 6 6 6 7 7 7 7 8 8 8 9 9 9 9 10 11 10 10
2 2 2 1 0 0 0 1 0 1 2 2 1 1 1 2 4 3 2 6 5 6 6 7 7 7 7 7 8 8 9 9 9 9 10 10 10 9
2 2 1 1 1 0 0 0 1 0 2 3 2 2 2 2 3 2 3 2 2 6 6 7 8 7 7 7 8 8 8 9 9 9 10 10 10 10
2 2 1 1 1 0 1 1 1 1 1 2 2 2 2 2 2 3 4 3 2 5 6 7 8 8 7 7 7 8 8 8 8 8 9 10 11 10
2 2 2 1 1 1 1 1 1 1 1 1 2 2 2 2 3 3 4 3 4 4 5 6 7 8 8 7 7 8 8 8 8 8 9 9 10 10
2 1 1 2 2 1 1 1 0 0 1 1 1 1 2 2 2 3 4 4 4 4 4 5 7 8 8 8 8 8 8 8 8 8 8 9 9 9
1 1 1 1 1 1 0 0 0 0 0 0 1 1 2 2 2 2 3 4 4 3 3 4 4 3 4 6 7 8 9 9 9 8 8 9 9 8
1 1 1 2 2 2 2 2 1 0 1 1 1 1 2 2 2 3 3 4 4 3 4 5 3 3 3 3 7 8 8 9 9 8 8 8 9 8
1 1 1 1 2 2 2 3 2 2 1 0 1 2 2 2 2 3 3 4 4 4 4 4 3 3 3 5 10 10 9 9 9 9 8 8 8 8
2 2 2 2 1 2 2 2 2 2 2 1 0 1 1 2 2 2 3 4 4 3 3 3 3 3 4 4 8 10 10 10 10 9 9 9 8 7
1 2 2 2 2 3 2 2 2 2 3 4 4 4 4 5 4 2 2 3 4 4 3 2 3 4 4 3 5 10 11 11 10 10 10 9 8 7
1 2 2 2 2 2 2 2 1 2 2 3 3 4 4 3 5 2 1 2 3 3 3 3 3 3 4 3 3 5 6 9 11 10 10 9 8 4
1 1 1 3 3 3 3 2 1 2 2 2 2 2 2 2 3 2 2 2 2 3 3 3 2 2 2 4 4 4 4 4 5 6 7 9 9 6
2 1 2 4 4 4 3 4 4 4 2 1 2 2 2 3 3 3 3 2 2 3 4 3 2 2 3 4 5 5 4 4 4 4 4 7 7 8
2 3 4 5 5 4 4 5 4 2 2 2 2 2 2 2 2 2 3 3 3 3 3 3 2 3 2 3 4 5 5 5 4 4 5 5 4 4
3 4 5 6 5 5 4 4 3 2 2 2 2 2 2 2 2 2 3 3 3 4 4 4 3 3 3 3 4 4 4 4 5 5 5 5 4 3
2 2 2 2 2 2 3 3 2 2 2 2 2 2 2 3 3 3 3 3 3 3 4 4 4 3 2 3 3 3 4 4 4 5 5 6 5 4
2 2 2 2 2 2 2 2 2 2 2 2 2 2 2 2 3 3 3 3 3 3 4 4 5 4 3 3 2 3 3 4 5 5 4 5 6 5
2 2 1 1 1 2 2 1 1 2 2 2 2 2 2 2 2 3 3 3 3 3 4 4 4 4 4 5 5 4 4 4 5 5 4 4 5 6
2 2 1 1 1 1 1 1 1 1 2 2 2 2 2 2 3 3 3 3 3 4 4 3 3 3 3 4 4 5 6 4 4 5 5 4 4 6
2 2 2 1 1 1 1 1 1 1 1 2 2 2 2 2 3 3 3 4 4 3 4 4 4 6 3 2 3 4 4 5 5 4 5 4 5 4
2 1 1 1 1 1 1 1 1 1 1 1 2 2 2 2 3 3 3 3 3 3 4 4 4 3 3 3 4 5 6 6 6 7 6 4 3 3
1 1 1 1 1 1 1 1 1 1 1 1 2 2 2 2 3 3 3 3 3 3 4 4 3 3 3 3 3 4 5 6 5 5 5 8 7 7
Wind_Direction
237 247 258 258 236 302 321 188 196 274 291 285 291 290 342 298 327 322 297 312 325 329 332 331 324 319 319 321 321 320 321 319 315 314 311 312 309 309
235 240 254 239 128 74 316 314 278 220 271 283 303 304 315 327 329 331 304 320 317 323 330 330 329 322 319 319 320 320 320 318 316 313 314 313 311 310
247 235 229 178 167 180 126 293 304 271 263 301 320 321 331 339 334 334 317 305 301 318 326 332 334 328 324 321 321 321 320 320 319 317 317 317 317 313
240 234 225 183 156 160 179 229 274 278 250 286 306 318 329 330 338 342 335 330 314 318 331 334 333 334 331 325 321 322 323 325 323 317 318 319 320 316
227 220 210 168 191 195 196 225 269 309 292 255 292 312 326 339 349 344 338 335 328 328 339 339 338 340 336 333 330 328 327 328 324 319 318 317 318 315
210 209 188 175 180 193 204 209 272 298 303 270 278 311 326 337 351 342 339 338 333 334 345 339 336 336 336 338 339 336 333 331 329 328 327 326 324 321
178 179 154 121 79 95 98 118 117 191 262 266 284 323 331 342 337 328 330 327 324 336 338 327 324 325 332 334 334 334 336 333 329 328 329 331 331 329
162 156 133 125 97 67 45 36 15 200 202 196 267 287 306 322 325 326 326 329 324 334 333 315 322 325 325 326 333 334 336 336 333 330 330 332 332 332
128 121 101 90 92 105 72 41 25 358 337 245 226 266 288 308 311 317 322 327 309 308 321 307 316 318 319 329 336 335 336 336 335 333 328 329 330 331
109 120 114 104 91 84 79 53 32 15 351 355 225 299 321 321 317 316 316 323 312 317 332 305 315 314 317 320 332 339 336 337 336 336 335 333 331 332
81 97 102 109 78 64 75 62 34 25 34 30 13 6 358 360 6 11 348 342 326 321 342 326 314 315 309 310 328 339 338 336 337 339 341 340 338 332
75 93 94 91 77 57 84 87 55 24 28 27 21 14 8 6 8 10 334 326 325 314 332 340 319 334 324 312 321 332 332 335 339 339 341 344 344 337
88 80 86 72 56 45 57 81 49 30 47 41 22 11 8 11 8 360 343 316 309 299 311 330 317 324 309 309 316 323 329 329 330 331 336 344 346 344
85 77 71 54 51 52 58 58 51 47 57 46 32 17 6 3 358 353 348 340 315 286 298 310 302 308 314 312 312 322 330 329 331 332 332 336 338 339
76 68 60 56 59 59 58 52 50 50 51 43 27 11 355 342 348 353 354 354 348 333 324 312 302 304 300 299 306 316 323 326 336 340 334 332 328 330
71 73 61 57 57 56 53 47 46 49 48 44 21 4 356 358 0 354 350 350 356 350 345 343 332 320 314 301 297 306 318 320 329 329 324 321 324 323
74 81 74 67 65 58 53 50 43 40 41 35 23 9 4 2 355 350 349 348 354 345 344 346 342 325 297 298 307 317 326 325 320 325 327 326 324 328
76 90 78 71 74 65 57 46 39 33 29 23 13 5 2 358 351 350 351 356 352 347 342 337 339 343 346 344 331 324 336 328 321 323 325 324 323 328
84 93 93 91 82 72 63 50 32 24 21 17 8 357 354 354 351 353 357 356 351 347 341 338 345 354 353 343 330 349 336 323 324 327 329 325 314 314
89 93 89 90 85 77 66 51 38 30 26 15 8 359 354 353 351 350 350 348 346 345 341 343 351 349 338 321 312 315 319 314 322 324 324 321 311 307
72 80 87 91 86 78 68 52 37 24 19 13 7 357 347 347 346 342 338 338 344 342 339 336 325 326 315 314 318 319 319 319 314 313 322 327 329 339
66 68 75 84 86 88 70 53 40 30 21 16 1 354 345 341 339 336 334 335 336 335 330 322 321 331 345 342 330 323 322 327 332 334 330 322 323 333
62 67 74 80 84 85 82 52 36 21 9 357 348 340 337 335 333 331 332 332 333 337 339 334 337 342 342 334 327 325 328 331 336 343 340 339 331 315